Flag Weather past 2 weeks in Minot, North Dakota, U.S.A.

Now
10 °F

Broken clouds.


Feels Like: -4 °F
Forecast: -10 / 15 °F
Wind: 10 mph from Southeast

Location: Minot International Airport

Current Time: Nov 27, 2014 at 11:51:17 AM

Latest Report: Nov 27, 2014 at 10:58 AM


Visibility: 10 mi

Pressure: 30.18 "Hg

Humidity: 76%

Dew point: 4 °F

Location of MinotLocation

Historic Weather in Minot — Graph

°F

Minot temperature yesterday

Maximum temperature yesterday: 6 °F (at 5:54 AM)
Minimum temperature yesterday: -15 °F (at 10:54 PM)
Average temperature yesterday: 0 °F

Past Weeks' High & Low Weather Summary

 TemperatureHumidityPressure
High50 °F (Nov 21, 1:54 PM)96% (Nov 22, 5:54 AM)30.71 "Hg (Nov 22, 5:54 AM)
Low-17 °F (Nov 27, 12:54 AM)39% (Nov 21, 1:54 PM)29.29 "Hg (Nov 22, 5:54 PM)
Average15 °F71%30.10 "Hg
* Reported Nov 12 10:54 AM — Nov 27 10:58 AM, Minot, Weather by CustomWeather, © 2014

Note: Actual official high and low records may vary slightly from our data, if they occured in-between our weather recording intervals... More about our weather records

Advertising

Minot weather history for previous 24 hours

 ConditionsComfort  
Time TempWeatherWind HumidityBarometerVisibility
10:58 AM
Nov 27
10 °FBroken clouds.10 mph76%30.18 "Hg10 mi
9:54 AM6 °FPartly sunny.8 mph79%30.36 "Hg10 mi
8:54 AM4 °FOvercast.8 mph80%30.39 "Hg4 mi
7:54 AM-2 °FOvercast.5 mph78%30.42 "Hg10 mi
6:54 AM-6 °FOvercast.No wind78%30.45 "Hg10 mi
5:54 AM-9 °FOvercast.3 mph74%30.47 "Hg10 mi
4:54 AM-12 °FClear.No wind74%30.51 "Hg10 mi
4:01 AM-11 °FMostly cloudy.3 mph78%30.36 "Hg10 mi
3:54 AMN/AOvercast.3 mphN/A30.53 "Hg10 mi
2:54 AM-11 °FLow clouds.No wind78%30.55 "Hg10 mi
1:54 AM-16 °FOvercast.No wind78%30.56 "Hg10 mi
12:54 AM-17 °FClear.No wind73%30.58 "Hg10 mi
11:54 PM
Nov 26
-14 °FClear.3 mph74%30.60 "Hg10 mi
10:54 PM-15 °FClear.5 mph77%30.60 "Hg10 mi
9:54 PM-13 °FClear.5 mph78%30.60 "Hg10 mi
8:54 PM-12 °FClear.9 mph81%30.60 "Hg10 mi
7:54 PM-12 °FClear.No wind86%30.60 "Hg10 mi
6:54 PM-11 °FClear.No wind86%30.59 "Hg10 mi
5:54 PM-6 °FClear.6 mphN/A30.59 "Hg10 mi
4:54 PM-6 °FSunny.5 mphN/A30.58 "Hg10 mi
3:54 PM1 °FSunny.3 mph68%30.56 "Hg10 mi
2:54 PM3 °FSunny.6 mph69%30.55 "Hg10 mi
1:54 PM4 °FSunny.7 mph69%30.54 "Hg10 mi
1:03 PM4 °FScattered clouds.8 mph69%30.40 "Hg10 mi
12:54 PM4 °FBroken clouds.7 mph69%30.53 "Hg9 mi
11:54 AM4 °FPartly sunny.6 mph73%30.54 "Hg10 mi
Weather by CustomWeather, © 2014

See weather overviewHow to use our weather pages